Location: Bennemühlen
(52.5740°N, 9.7135°E)
Time: 21:29:18
(UTC+00:00)

Tiros 1 despin weight - Pass Details

Date: 21 February 2026
Orbit: 556 x 593 km, 48.2° (Epoch: 8 March)

Event Time Altitude Azimuth Distance (km) Brightness Sun altitude
Rises 18:55:36 0° 273° (W) 2,735 ? -20.4°
Reaches altitude 10° 18:58:49 10° 247° (WSW) 1,837 ? -20.9°
Maximum altitude 19:00:55 14° 216° (SW) 1,616 ? -21.2°
Drops below altitude 10° 19:03:01 10° 186° (S) 1,836 ? -21.5°
Enters shadow 19:03:17 - 183° (S) 1,890 ? -21.6°
Sets 19:06:14 0° 160° (SSE) 2,732 - -22.0°
